SCP
0 0 0 0 1 1 1 1 1 1 1 1 1 1 1 1 1 1 1 1 1 0 0 0 0 0 0 0 0 0 0 0 0 0 0 0 0 0 0 0 0 0 0
1 1 0 0 1 1 1 1 1 1 1 1 1 1 1 1 1 1 1 1 1 0 0 0 0 0 0 0 0 0 0 0 0 0 0 0 0 0 0 0 0 0 0
1 1 1 1 1 1 1 1 1 1 1 1 1 1 1 1 1 1 1 1 1 0 0 0 0 0 0 0 0 0 0 0 0 0 0 0 0 0 0 0 0 0 0
1 1 1 1 1 1 1 1 1 1 1 1 1 1 1 1 1 1 1 1 1 0 0 0 0 0 0 0 0 0 0 0 0 0 0 0 0 0 0 0 0 0 0
1 1 1 1 1 1 1 1 1 2 1 1 1 1 1 1 1 1 1 1 1 0 0 0 0 0 0 0 0 0 0 0 0 0 0 0 0 0 0 0 0 0 0
1 1 1 1 1 1 1 1 2 2 1 1 1 1 1 1 1 1 1 1 1 0 0 0 0 0 0 0 0 0 0 0 0 0 0 0 0 0 0 0 0 0 0
0 1 1 1 1 1 1 2 2 2 2 1 1 1 1 1 1 1 1 1 1 0 0 0 0 0 0 0 0 0 0 0 0 0 0 0 0 0 0 0 0 0 0
0 1 1 1 1 1 2 2 2 2 2 2 2 2 2 1 1 1 1 1 1 1 0 0 0 0 0 0 0 0 0 0 0 0 0 0 0 0 0 0 0 0 0
0 1 1 1 1 1 2 2 2 2 2 2 2 2 2 1 1 1 1 1 1 1 1 1 1 1 0 0 0 0 0 0 0 0 0 0 0 0 0 0 0 0 0
1 1 1 1 1 1 1 2 2 2 2 2 2 1 1 1 1 1 1 1 1 1 1 1 1 1 1 1 1 1 1 1 1 1 1 1 0 0 0 0 0 0 0
1 1 1 1 1 1 1 1 1 2 2 2 1 1 1 1 1 1 1 1 1 1 1 1 1 1 1 1 1 1 1 1 1 1 1 1 1 1 1 1 1 1 1
1 1 1 1 1 1 1 1 1 1 1 1 1 1 1 1 1 1 2 1 1 1 1 1 1 1 1 1 1 1 1 1 1 1 1 1 1 1 1 1 1 1 1
1 1 1 1 1 1 1 1 1 1 1 1 1 1 1 2 2 2 2 2 2 1 1 1 1 1 1 1 1 1 1 1 1 1 1 1 1 1 1 1 1 1 1
1 1 1 1 1 1 2 2 1 1 1 1 1 2 2 2 2 2 2 2 2 2 2 1 1 1 1 1 1 1 1 1 1 1 1 1 1 1 1 1 1 1 1
1 1 1 2 2 2 2 2 2 2 2 2 2 2 2 2 2 2 2 2 2 2 2 2 2 1 1 1 1 1 1 1 1 1 1 1 1 1 1 1 1 1 1
1 2 2 2 2 2 2 2 2 2 2 2 2 2 2 2 2 2 2 2 2 2 2 2 2 1 1 1 1 1 1 1 1 1 1 1 1 1 1 0 0 0 1
2 2 2 2 2 2 2 2 2 2 2 2 2 2 2 2 2 1 2 2 2 2 2 2 2 1 1 1 0 0 1 1 1 1 1 1 1 1 1 1 0 0 0
2 2 2 2 2 2 2 2 2 2 2 2 2 2 2 2 2 1 2 2 2 2 2 2 2 2 1 1 0 0 1 1 1 1 1 1 1 1 1 1 1 1 1
2 2 2 2 2 2 2 2 2 2 2 2 2 2 2 2 2 2 2 2 2 2 2 2 2 2 1 1 0 0 1 1 1 1 1 1 1 1 1 1 1 1 1
2 2 1 2 2 2 2 2 2 2 2 2 2 2 2 2 2 2 2 2 2 2 2 2 2 2 1 1 0 0 1 1 1 1 1 1 1 1 0 1 1 1 1
1 2 2 2 2 3 3 2 2 2 2 2 2 2 2 2 2 2 2 2 2 2 2 2 2 2 2 1 0 0 1 1 1 1 1 1 1 0 0 0 1 1 1
1 1 2 2 3 3 3 2 2 2 2 2 2 2 2 2 2 2 2 2 2 2 2 2 2 2 2 1 1 0 0 1 1 1 1 1 0 0 0 0 0 0 0
1 1 2 2 2 3 3 2 2 2 2 2 2 2 2 2 2 2 2 2 2 2 2 2 2 2 2 1 1 0 0 0 1 1 1 0 0 0 0 0 0 0 0
1 1 2 2 2 3 3 3 2 2 2 2 2 2 2 2 2 2 2 2 2 2 1 1 2 2 2 2 1 0 0 0 0 0 0 0 0 0 0 0 0 0 0
1 1 2 2 2 3 3 3 3 2 2 2 2 2 2 2 2 2 2 1 1 1 1 1 1 1 1 1 1 1 0 0 0 0 0 0 0 0 0 0 0 0 0
1 1 2 2 2 3 3 3 3 3 2 2 2 2 2 2 2 2 2 1 1 1 1 1 1 1 1 1 1 1 0 0 0 0 0 0 0 0 1 1 1 1 1
Wind_Speed
11 11 10 10 10 9 8 6 5 4 3 2 1 1 1 1 1 2 3 3 2 2 1 1 1 1 1 1 1 1 2 2 2 1 1 1 2 3 2 2 2 2 2
12 11 10 10 10 9 8 7 5 5 4 3 2 1 1 1 2 2 2 2 2 2 2 1 1 1 1 1 1 1 1 2 2 1 1 1 1 1 3 2 2 2 1
14 13 11 10 10 10 9 7 6 5 5 4 2 2 1 1 1 2 2 2 2 1 1 1 1 1 1 1 2 1 1 1 1 1 1 1 1 1 1 2 2 2 1
14 14 12 10 10 10 10 7 7 5 5 4 3 3 3 2 2 2 2 2 2 2 2 2 1 1 0 1 2 1 1 1 1 1 1 1 1 1 1 1 1 1 1
13 14 13 11 10 10 10 8 7 6 5 4 3 2 2 2 2 2 3 2 2 2 2 3 2 1 0 0 0 1 1 1 1 1 1 1 1 2 2 1 1 1 1
11 12 12 11 9 10 9 10 8 6 6 5 4 3 2 1 1 2 3 3 2 2 2 2 2 1 1 0 0 0 1 1 1 2 1 1 1 1 1 1 1 1 1
11 11 12 11 9 9 8 9 9 7 6 6 4 3 3 3 2 2 2 2 2 2 2 2 2 1 1 1 1 1 1 1 1 2 2 1 2 1 1 1 1 1 1
11 11 12 11 10 10 8 8 8 7 7 6 4 3 3 2 2 2 1 1 1 2 3 3 2 2 1 1 1 1 2 1 1 2 2 2 2 1 1 1 1 1 1
11 11 11 11 10 10 9 9 9 7 6 6 5 4 3 2 1 2 2 1 1 1 2 3 3 2 2 1 1 1 1 1 1 2 1 2 2 1 2 1 1 1 1
10 10 10 10 9 10 9 8 8 7 6 5 5 5 5 3 2 2 2 1 1 0 1 1 2 2 2 1 1 1 1 1 1 1 1 2 2 1 1 1 1 1 1
10 10 9 9 8 9 9 8 8 7 6 6 5 3 5 4 3 2 2 2 1 1 1 1 1 1 1 1 1 2 1 1 1 2 1 2 2 2 2 1 1 1 1
9 10 8 8 7 8 8 7 7 7 6 5 5 4 3 4 4 3 3 2 2 2 2 1 1 2 1 1 1 2 2 1 2 2 1 2 2 1 1 1 1 0 0
8 9 8 7 6 6 6 6 6 6 6 6 6 5 3 3 3 3 3 3 2 3 2 2 2 2 1 1 2 2 2 2 1 1 1 1 1 1 1 1 1 0 0
7 8 7 6 5 4 5 5 5 5 5 5 5 4 4 3 2 2 3 3 3 3 2 2 2 2 2 1 2 2 2 2 1 1 1 1 0 1 1 1 1 1 1
7 8 7 6 5 5 4 3 3 3 3 4 4 4 3 3 3 3 3 3 3 3 2 2 2 2 2 2 2 3 3 2 1 1 1 1 1 1 1 1 1 1 1
7 7 6 6 5 5 4 3 3 3 4 4 3 3 4 3 3 3 3 3 3 2 2 2 2 2 2 1 0 1 2 2 2 2 2 2 1 1 0 0 0 1 2
5 5 6 6 5 5 4 3 3 2 3 3 3 3 3 4 4 4 3 4 4 3 2 2 2 2 1 1 1 2 2 2 2 2 2 2 1 2 1 1 1 1 1
5 5 5 5 5 4 4 3 3 3 3 3 3 3 3 3 3 2 2 2 2 2 2 2 3 3 2 2 2 2 3 3 2 2 2 1 1 1 1 2 2 2 2
3 4 5 5 5 4 4 3 3 4 4 3 3 3 3 3 3 3 3 3 3 3 3 3 3 3 2 3 3 3 3 3 3 2 2 2 2 2 2 2 2 2 1
2 2 4 5 5 4 4 3 3 3 3 3 2 2 3 3 3 3 3 2 3 3 3 3 4 4 3 3 3 3 3 3 3 3 2 2 2 1 1 2 3 3 2
3 2 2 3 3 4 4 3 3 2 2 1 2 2 3 3 3 3 2 3 3 3 3 3 4 4 4 4 5 4 3 2 2 2 2 2 3 2 2 3 3 4 3
2 1 1 2 2 3 3 3 2 2 2 2 2 2 3 4 4 3 3 3 4 4 4 4 4 3 3 4 5 6 5 3 2 2 1 1 3 3 4 4 4 4 3
2 1 0 1 2 3 3 3 2 1 2 2 3 3 4 3 3 4 4 4 4 4 4 4 4 3 3 3 5 6 6 4 2 1 1 1 3 3 4 6 5 4 3
1 1 1 1 1 2 2 2 2 1 2 3 3 3 4 4 4 3 4 4 4 4 4 4 4 3 3 2 3 3 3 3 2 2 2 3 5 5 5 4 4 4 3
1 1 1 1 1 0 1 1 2 2 2 3 3 4 5 5 4 4 3 3 3 3 3 3 2 2 2 2 4 4 4 3 3 2 3 3 3 3 3 3 3 3 3
0 0 1 2 1 1 1 1 2 2 2 3 3 4 4 4 4 4 4 1 2 2 2 1 1 0 2 4 4 3 3 3 4 3 4 4 4 4 3 3 3 3 3
Wind_Direction
151 148 148 144 138 136 137 137 139 139 142 135 151 150 149 149 121 123 127 137 148 163 173 172 164 176 170 155 145 163 213 216 195 193 210 217 191 174 180 205 203 192 194
154 153 156 153 148 147 146 148 155 154 157 153 168 176 161 160 147 120 122 133 148 177 173 171 184 146 166 156 164 188 224 226 190 189 165 189 228 221 194 184 191 183 185
162 162 163 163 161 155 158 163 163 161 169 165 164 171 145 189 130 136 150 157 172 172 121 151 159 187 192 165 193 209 221 240 227 179 183 193 203 202 172 188 180 169 172
164 164 165 169 167 162 161 155 156 159 165 170 182 187 177 186 163 167 158 166 178 177 159 152 159 207 252 138 219 180 243 227 252 224 234 221 167 183 190 220 185 174 199
165 164 167 173 170 164 159 155 155 161 165 177 190 198 188 194 169 166 150 172 182 194 165 153 164 190 224 175 293 44 301 291 295 293 285 287 234 223 193 224 217 201 213
164 162 162 161 167 166 163 159 157 162 168 180 191 191 200 200 181 180 162 190 181 178 169 156 165 164 169 177 181 279 278 312 329 321 306 293 283 271 211 228 242 233 221
160 160 158 158 164 164 160 154 154 164 172 181 190 188 195 198 196 207 183 204 179 161 166 159 149 146 174 191 193 229 263 278 291 292 293 294 296 304 283 235 260 298 295
160 159 161 162 166 164 157 152 154 164 171 177 179 175 182 200 191 197 203 193 217 153 153 160 165 164 195 205 190 230 237 239 265 284 301 301 303 317 290 228 217 272 300
160 159 161 163 168 166 162 160 154 162 171 179 175 173 183 195 201 165 211 209 220 177 149 162 171 175 188 208 208 220 262 264 247 269 270 275 299 297 305 300 238 216 250
158 160 162 162 164 162 160 157 156 160 166 175 182 178 181 186 194 178 185 205 167 141 136 157 158 169 177 182 223 243 239 240 265 266 299 303 305 309 301 294 294 239 204
163 161 159 158 160 162 158 159 160 163 169 174 177 179 173 181 183 188 181 183 187 178 162 153 163 177 173 193 218 241 245 236 266 285 274 273 281 297 309 318 298 253 138
155 154 152 154 159 161 161 164 166 170 171 174 171 179 179 174 178 186 184 185 186 180 163 170 181 193 195 203 220 244 247 234 235 252 261 260 263 266 291 314 302 288 215
147 145 139 145 157 160 154 161 166 167 174 175 174 175 179 178 184 179 172 181 186 180 177 177 188 206 214 222 225 236 242 251 247 250 243 267 283 283 287 276 287 256 153
143 140 134 138 148 145 145 154 163 167 169 159 168 171 174 180 182 179 179 187 187 178 185 189 203 203 203 229 248 245 237 240 252 247 229 247 312 296 283 270 269 202 149
149 141 140 143 148 141 138 151 156 150 152 149 160 167 174 173 179 182 186 189 184 183 182 185 202 213 205 232 239 239 227 222 235 247 229 135 100 47 328 290 268 227 201
155 149 147 141 142 145 151 159 161 158 155 165 174 171 175 176 181 184 184 185 182 183 188 191 206 224 232 227 265 244 249 221 214 234 240 197 174 148 132 353 209 217 214
155 150 152 149 146 149 150 159 157 150 166 175 181 182 183 181 191 193 185 190 187 187 194 201 200 204 229 248 257 244 248 241 221 227 245 255 229 188 198 179 170 197 242
154 153 151 148 150 149 151 166 169 175 181 189 193 184 186 188 186 186 191 195 190 192 202 213 211 204 211 221 235 241 238 244 230 225 226 244 268 294 259 212 191 196 218
123 149 159 158 150 154 161 181 189 188 186 195 201 191 193 194 196 200 194 196 201 206 211 216 213 213 213 219 227 230 239 234 233 221 212 220 224 277 269 218 219 215 204
101 124 155 155 150 156 163 186 200 196 200 203 205 203 197 194 203 205 200 202 209 220 221 217 213 215 215 214 224 218 231 233 223 205 199 185 198 227 239 216 229 234 231
66 74 106 127 145 154 161 184 198 206 215 225 217 211 199 198 200 191 194 203 215 221 230 227 220 214 209 189 196 197 219 244 243 224 207 201 188 197 221 231 239 241 250
60 64 93 121 139 146 161 183 200 200 209 226 225 224 214 217 204 192 201 207 214 214 222 230 233 222 207 193 194 197 209 234 244 245 234 199 193 207 222 227 239 243 248
32 13 34 164 155 158 175 201 204 197 215 232 230 224 221 225 200 196 208 213 213 221 226 227 231 226 210 195 189 196 210 226 240 282 297 233 224 234 233 230 231 226 229
50 8 313 247 184 174 190 194 180 182 216 234 232 224 219 220 210 205 215 222 224 225 229 236 233 221 212 189 172 189 211 224 224 247 254 236 232 238 238 226 225 219 223
79 45 317 294 310 105 189 203 182 186 216 234 233 229 226 223 221 221 234 239 238 235 228 245 246 231 214 202 198 198 202 214 213 212 231 237 225 220 218 216 210 209 211
81 184 254 271 288 297 261 247 220 203 214 230 233 237 235 223 217 220 224 244 235 198 191 218 247 180 159 168 171 172 174 189 179 202 234 233 228 226 224 220 216 216 216